Wind_Speed
18 19 20 20 21 21 21 21 21 20 20 20 20 21 21 21 21 21 20 20 20 20 20 20 20 20 21 21 21 21 21 21 21 22 22 22 22 22
19 19 20 21 22 22 23 23 23 23 22 23 23 23 23 23 23 22 22 22 22 21 22 22 22 22 23 23 23 23 23 23 23 24 24 24 25 25
17 18 19 20 21 22 23 24 25 24 24 24 25 25 25 25 24 24 24 24 24 24 24 24 24 25 25 25 25 25 25 25 25 26 26 26 27 27
17 18 19 19 20 21 22 23 24 24 25 25 25 25 25 25 25 26 25 26 26 26 26 26 25 25 26 26 26 27 27 27 27 28 28 28 29 30
17 18 18 19 19 20 21 22 24 25 25 25 25 25 26 26 27 27 27 27 27 27 27 26 26 27 27 28 29 29 30 30 30 31 31 31 32 33
18 18 18 19 19 20 20 22 23 24 24 25 24 25 26 27 27 27 28 28 28 28 29 29 29 29 30 30 31 32 32 33 34 34 34 35 35 35
20 19 19 20 21 21 21 22 23 23 24 24 25 25 26 26 27 28 29 29 29 30 31 32 32 32 32 33 34 34 35 36 37 37 37 38 38 38
20 21 21 21 22 21 22 23 24 24 25 25 26 27 27 28 29 29 30 31 32 33 33 34 35 35 35 35 36 37 37 38 39 40 41 41 42 42
21 22 24 24 23 24 24 25 25 25 26 27 28 28 29 30 30 31 32 32 33 34 35 35 37 38 38 39 39 39 40 41 42 42 43 44 44 45
22 23 24 24 25 25 25 25 26 26 27 28 29 29 30 31 32 34 34 34 35 36 36 37 38 39 39 40 40 41 42 42 43 44 45 45 45 45
22 23 23 24 25 25 26 27 27 28 28 29 30 31 31 32 33 34 35 36 37 38 39 39 39 40 41 42 43 43 44 45 45 45 45 45 45 46
23 24 25 25 26 27 27 28 28 29 30 31 32 32 32 33 34 35 36 37 38 39 40 41 41 42 43 44 44 44 45 45 45 45 45 45 46 46
24 25 26 27 28 28 29 29 30 30 30 31 32 32 33 33 34 35 37 38 39 39 40 42 43 44 45 44 44 45 45 45 45 45 45 45 46 46
26 26 27 29 29 29 30 31 30 30 31 31 32 32 33 34 35 36 37 38 39 40 40 41 42 43 43 44 44 45 45 46 46 46 46 46 46 46
27 28 28 29 31 31 32 32 33 33 33 33 34 34 35 36 37 37 38 39 39 40 41 41 42 43 44 44 45 46 46 46 46 46 46 46 47 47
28 28 29 29 31 32 33 33 34 34 35 36 36 37 38 38 38 39 39 40 41 41 42 43 44 45 45 45 46 45 45 45 46 46 46 47 47 47
28 28 29 30 31 33 34 35 35 36 36 37 37 38 39 39 40 40 41 41 42 42 43 44 45 45 46 46 46 46 45 45 46 46 47 47 47 48
28 29 30 32 33 34 35 36 36 37 38 39 39 40 41 41 42 42 43 43 43 43 44 44 45 45 45 45 45 45 45 45 45 46 47 47 47 47
30 31 32 33 34 35 36 37 38 39 39 40 41 42 42 43 43 44 44 45 45 45 45 46 46 45 45 45 45 45 45 45 45 46 46 46 46 46
32 33 34 35 36 37 38 38 39 39 40 40 41 41 42 43 43 44 45 45 46 46 46 46 46 45 45 44 44 44 44 44 44 45 44 44 44 45
33 34 35 36 36 37 37 37 38 38 38 39 39 40 41 42 43 44 44 45 45 45 45 45 44 44 43 43 43 42 42 43 43 43 43 43 43 42
34 34 35 36 36 37 37 37 38 38 39 39 40 41 41 42 43 43 43 43 43 43 43 42 41 41 41 41 41 42 42 42 42 42 42 42 41 40
34 35 35 36 37 38 38 38 39 39 39 40 40 40 41 42 42 42 41 41 41 40 40 39 39 39 39 39 39 40 40 39 39 39 39 39 39 39
Wind_Direction
265 265 263 263 264 264 266 267 268 269 271 273 276 276 276 275 275 273 272 273 272 271 272 274 276 275 275 276 276 276 277 277 276 276 277 277 277 277
268 267 267 264 265 265 265 266 266 266 267 269 272 275 277 276 277 274 271 271 272 274 275 275 276 275 275 275 275 276 277 276 276 275 275 275 276 276
270 270 270 268 267 266 266 267 267 266 267 269 271 273 276 276 276 274 272 270 271 273 274 275 275 275 276 277 276 276 275 274 275 275 275 275 275 276
272 272 272 271 270 267 267 268 270 269 269 270 271 272 274 274 275 273 272 272 272 272 274 276 277 277 277 277 277 277 275 275 276 276 275 276 276 276
273 275 274 272 271 271 270 269 270 271 271 271 271 270 271 272 273 272 272 271 271 272 273 274 277 277 277 277 277 276 276 276 275 275 275 277 277 277
273 274 274 273 272 273 274 273 272 272 273 273 271 270 271 272 272 272 273 273 273 273 274 274 276 277 278 279 278 276 276 276 276 276 277 277 278 278
273 274 275 274 273 276 278 277 276 276 276 276 275 274 273 273 273 273 273 274 274 275 275 275 276 277 278 279 278 277 277 277 277 277 277 277 277 278
274 273 274 274 274 276 277 278 278 278 278 277 276 277 277 274 273 274 274 275 274 274 275 275 277 278 278 278 278 277 278 278 278 277 277 278 277 278
273 275 274 273 272 274 276 278 277 277 277 278 279 279 278 277 276 275 275 276 275 274 274 275 277 279 279 278 278 278 278 278 278 278 278 279 279 278
274 275 276 275 274 276 276 279 279 278 278 279 280 280 279 278 278 277 275 275 276 277 277 276 277 278 279 279 279 278 278 279 279 279 279 279 279 278
277 276 275 275 276 276 277 279 281 281 281 281 281 280 280 280 279 279 278 277 277 277 277 277 278 279 279 280 280 280 280 280 280 281 281 280 280 280
281 280 278 277 278 278 278 279 280 282 283 283 282 282 282 281 279 279 279 278 278 277 277 278 280 280 279 279 279 280 280 281 281 281 282 282 282 282
283 281 281 279 279 279 280 280 281 282 284 285 285 284 283 282 282 281 281 280 279 279 279 279 280 280 281 280 280 280 280 280 281 281 282 283 283 283
283 282 282 281 279 279 280 281 282 285 286 286 287 286 286 285 285 285 284 284 283 282 283 282 282 282 282 282 282 282 282 281 281 282 283 283 284 283
285 283 282 282 281 281 281 281 282 284 285 286 287 287 287 288 288 287 287 287 286 285 285 284 284 285 284 283 283 283 282 282 281 282 283 283 284 283
286 285 284 283 284 284 283 283 283 284 284 285 285 286 287 288 289 289 289 289 288 288 288 286 285 286 285 284 284 284 283 283 282 283 283 284 285 285
286 284 284 284 285 286 286 285 285 284 284 284 285 286 287 288 288 288 289 289 288 288 287 287 287 287 287 287 286 285 286 286 285 284 284 285 285 286
285 286 286 287 287 288 287 287 287 286 285 285 285 286 287 288 288 288 289 289 289 288 287 287 287 288 288 287 286 285 285 285 285 284 285 284 285 285
288 288 289 290 290 290 289 289 289 288 287 287 287 288 288 288 288 288 289 289 289 289 288 288 287 287 288 288 287 286 286 285 285 286 286 285 285 285
292 291 291 292 291 291 291 291 290 290 290 290 290 290 290 290 290 290 290 290 290 289 289 289 289 289 289 289 288 287 286 286 287 287 287 287 287 286
295 295 295 295 295 294 294 293 293 293 293 293 293 294 294 294 293 293 292 292 291 291 291 290 290 290 291 290 289 288 288 288 288 288 288 288 288 288
296 296 296 297 297 297 295 294 294 294 294 295 295 296 296 295 295 295 294 294 294 294 293 292 292 292 291 291 290 290 290 289 290 290 291 291 291 291
298 299 299 299 298 297 296 296 296 296 296 296 297 297 298 298 297 297 297 296 296 295 295 294 293 294 293 292 292 292 291 291 292 293 293 293 293 293
Height
5882 5882 5882 5883 5883 5884 5884 5884 5885 5885 5885 5884 5883 5883 5882 5882 5882 5881 5881 5881 5881 5880 5880 5880 5879 5879 5879 5878 5878 5877 5876 5876 5875 5874 5874 5873 5873 5872
5877 5877 5877 5878 5878 5878 5878 5879 5879 5879 5880 5880 5879 5878 5877 5877 5877 5876 5876 5876 5876 5875 5875 5875 5874 5874 5873 5873 5872 5872 5871 5870 5869 5869 5868 5867 5867 5866
5872 5872 5872 5872 5872 5873 5873 5873 5873 5873 5873 5874 5873 5872 5871 5871 5871 5870 5870 5870 5870 5870 5869 5869 5868 5868 5867 5866 5866 5865 5864 5864 5863 5862 5861 5861 5860 5859
5868 5868 5868 5867 5867 5867 5867 5867 5867 5867 5867 5867 5867 5866 5865 5865 5864 5864 5864 5864 5864 5863 5863 5863 5862 5861 5861 5860 5859 5858 5858 5857 5856 5855 5854 5854 5853 5852
5864 5863 5863 5862 5862 5862 5862 5861 5861 5861 5860 5860 5860 5860 5859 5858 5858 5858 5858 5857 5857 5856 5856 5856 5855 5855 5854 5853 5852 5851 5850 5849 5848 5847 5846 5845 5844 5843
5859 5858 5858 5858 5857 5857 5856 5856 5855 5854 5854 5854 5853 5853 5852 5851 5851 5851 5851 5850 5850 5849 5849 5848 5848 5847 5846 5845 5844 5843 5842 5841 5840 5839 5837 5836 5835 5834
5854 5853 5853 5852 5852 5851 5851 5850 5849 5849 5848 5847 5847 5846 5846 5845 5844 5843 5842 5842 5842 5841 5841 5840 5839 5838 5837 5836 5835 5834 5833 5831 5830 5829 5828 5826 5825 5824
5849 5848 5847 5847 5846 5846 5845 5844 5843 5843 5842 5841 5840 5839 5839 5837 5836 5835 5834 5834 5834 5834 5832 5831 5830 5829 5828 5827 5825 5824 5823 5821 5820 5818 5817 5815 5814 5812
5843 5842 5841 5841 5840 5840 5839 5838 5837 5836 5835 5834 5833 5832 5831 5830 5828 5827 5826 5825 5825 5824 5823 5822 5820 5819 5818 5816 5815 5813 5812 5810 5808 5806 5805 5803 5802 5800
5837 5836 5835 5835 5834 5833 5833 5832 5830 5829 5828 5827 5826 5824 5823 5821 5820 5819 5818 5817 5816 5814 5813 5812 5811 5809 5807 5805 5804 5802 5800 5798 5796 5794 5793 5791 5789 5787
5831 5830 5829 5829 5828 5827 5826 5825 5824 5822 5820 5819 5817 5816 5814 5812 5811 5809 5808 5806 5805 5804 5802 5801 5800 5798 5796 5794 5792 5790 5788 5786 5784 5782 5780 5777 5776 5774
5825 5824 5823 5822 5821 5820 5819 5818 5816 5815 5813 5811 5809 5807 5805 5803 5801 5799 5798 5796 5794 5793 5792 5790 5788 5786 5785 5783 5780 5777 5775 5773 5771 5769 5766 5764 5762 5760
5818 5817 5816 5815 5814 5813 5811 5810 5808 5806 5804 5802 5800 5797 5795 5793 5791 5789 5787 5785 5783 5782 5780 5778 5776 5774 5771 5770 5767 5765 5762 5760 5757 5755 5753 5751 5748 5746
5811 5810 5809 5807 5806 5804 5803 5801 5799 5797 5795 5793 5791 5789 5786 5783 5781 5779 5776 5774 5772 5770 5768 5765 5763 5761 5758 5756 5754 5752 5749 5746 5744 5742 5740 5737 5734 5732
5804 5802 5801 5799 5798 5796 5794 5792 5791 5788 5786 5784 5781 5779 5777 5774 5771 5768 5766 5763 5760 5758 5755 5753 5750 5748 5745 5742 5740 5738 5735 5732 5730 5728 5725 5723 5720 5718
5795 5794 5792 5791 5789 5787 5785 5783 5781 5779 5776 5774 5771 5769 5766 5764 5761 5758 5755 5752 5749 5746 5743 5740 5738 5735 5732 5729 5726 5723 5721 5719 5716 5714 5711 5708 5705 5703
5787 5786 5784 5782 5780 5778 5776 5773 5771 5768 5766 5763 5761 5758 5755 5753 5750 5747 5744 5741 5738 5735 5732 5728 5725 5721 5718 5715 5712 5709 5707 5704 5701 5699 5696 5694 5691 5688
5780 5778 5775 5773 5771 5768 5766 5763 5761 5758 5755 5753 5750 5747 5744 5741 5738 5735 5732 5729 5726 5722 5719 5716 5712 5709 5705 5702 5699 5695 5693 5690 5687 5684 5681 5679 5676 5673
5771 5769 5766 5764 5761 5759 5756 5753 5750 5747 5744 5741 5738 5735 5732 5729 5725 5722 5719 5716 5712 5709 5705 5702 5699 5695 5692 5689 5685 5681 5678 5675 5672 5669 5666 5664 5661 5659
5763 5760 5757 5754 5751 5748 5745 5742 5739 5736 5733 5730 5726 5723 5719 5716 5713 5709 5706 5702 5699 5695 5691 5688 5684 5681 5677 5675 5672 5668 5663 5661 5658 5655 5652 5649 5646 5643
5754 5751 5747 5744 5741 5737 5734 5731 5728 5724 5721 5718 5714 5711 5707 5704 5700 5696 5692 5688 5685 5681 5678 5674 5670 5667 5663 5660 5657 5654 5651 5647 5643 5640 5638 5635 5632 5629
5745 5741 5737 5734 5731 5727 5724 5720 5717 5714 5710 5707 5703 5699 5695 5691 5687 5683 5679 5675 5672 5668 5664 5661 5657 5654 5650 5647 5644 5641 5638 5635 5630 5627 5623 5621 5618 5616
5735 5731 5728 5724 5720 5717 5713 5709 5706 5702 5699 5695 5691 5687 5683 5679 5675 5671 5667 5663 5659 5656 5652 5649 5645 5642 5638 5635 5632 5628 5625 5622 5618 5615 5612 5608 5605 5602